TimePDT,TemperatureF,Dew PointF,Humidity,Sea Level PressureIn,VisibilityMPH,Wind Direction,Wind SpeedMPH,Gust SpeedMPH,PrecipitationIn,Events,Conditions,WindDirDegrees,DateUTC
12:56 AM,32.0,19.9,61,30.19,10.0,SE,3.5,-,N/A,,Clear,140,2013-03-25 07:56:00
1:56 AM,32.0,21.0,64,30.19,10.0,SE,4.6,-,N/A,,Clear,140,2013-03-25 08:56:00
2:56 AM,30.0,21.0,69,30.19,10.0,ESE,3.5,-,N/A,,Clear,120,2013-03-25 09:56:00
3:56 AM,28.9,21.0,72,30.19,10.0,Calm,Calm,-,N/A,,Mostly Cloudy,0,2013-03-25 10:56:00
4:56 AM,32.0,24.1,73,30.18,10.0,ENE,4.6,-,N/A,,Overcast,70,2013-03-25 11:56:00
5:56 AM,33.1,24.1,70,30.18,10.0,East,6.9,-,N/A,,Overcast,90,2013-03-25 12:56:00
6:56 AM,33.1,25.0,72,30.19,10.0,East,5.8,-,N/A,,Overcast,100,2013-03-25 13:56:00
7:56 AM,34.0,26.1,73,30.19,10.0,East,4.6,-,N/A,,Overcast,100,2013-03-25 14:56:00
8:56 AM,36.0,26.1,67,30.18,10.0,East,4.6,-,N/A,,Overcast,80,2013-03-25 15:56:00
9:56 AM,37.9,26.1,62,30.18,10.0,East,8.1,-,N/A,,Overcast,80,2013-03-25 16:56:00
10:56 AM,42.1,28.0,58,30.17,10.0,ENE,8.1,-,N/A,,Overcast,60,2013-03-25 17:56:00
11:56 AM,46.9,28.0,48,30.14,10.0,NE,4.6,-,N/A,,Mostly Cloudy,50,2013-03-25 18:56:00
12:56 PM,50.0,28.0,43,30.11,10.0,Variable,3.5,-,N/A,,Overcast,0,2013-03-25 19:56:00
1:56 PM,53.1,27.0,37,30.08,10.0,NNE,5.8,-,N/A,,Mostly Cloudy,30,2013-03-25 20:56:00
2:56 PM,55.0,27.0,34,30.05,10.0,Calm,Calm,-,N/A,,Scattered Clouds,0,2013-03-25 21:56:00
3:56 PM,57.0,27.0,32,30.03,10.0,Variable,5.8,-,N/A,,Overcast,0,2013-03-25 22:56:00
4:56 PM,55.9,27.0,33,30.01,10.0,NNE,5.8,-,N/A,,Mostly Cloudy,30,2013-03-25 23:56:00
5:56 PM,55.0,28.0,35,29.99,10.0,ENE,8.1,-,N/A,,Overcast,60,2013-03-26 00:56:00
6:56 PM,53.1,28.0,38,29.98,10.0,ENE,9.2,-,N/A,,Overcast,70,2013-03-26 01:56:00
7:56 PM,52.0,28.0,40,29.98,10.0,East,5.8,-,N/A,,Overcast,90,2013-03-26 02:56:00
8:56 PM,51.1,28.0,41,29.98,10.0,East,3.5,-,N/A,,Overcast,90,2013-03-26 03:56:00
9:56 PM,50.0,28.0,43,29.99,10.0,ESE,3.5,-,N/A,,Overcast,110,2013-03-26 04:56:00
10:56 PM,46.9,30.0,52,29.98,10.0,SE,3.5,-,N/A,,Overcast,130,2013-03-26 05:56:00
11:56 PM,48.0,28.9,48,29.97,10.0,ENE,3.5,-,N/A,,Mostly Cloudy,60,2013-03-26 06:56:00